Regional Weather Roundup
Issued by NWS

Home | Current Version | Previous Version | Text Only | Print | Product List | Glossary On
Versions: 1 2 3 4 5 6 7 8 9 10 11 12 13 14 15 16 17 18 19 20 21 22 23 24 25 26 27
000
ASUS42 KFFC 231603
RWRGA
WEATHER ROUNDUP FOR GEORGIA
NATIONAL WEATHER SERVICE PEACHTREE CITY GA
1200 PM EDT THU OCT 23 2014

NOTE: "FAIR" INDICATES FEW OR NO CLOUDS BELOW 12,000 FEET WITH NO
SIGNIFICANT WEATHER AND/OR OBSTRUCTIONS TO VISIBILITY.

* = USE WITH CAUTION. THE STATIONS MARKED WITH AN ASTERISK MAY NOT
REPORT WEATHER SUCH AS PRECIPITATION, FOG, OR THUNDER AND ARE NOT
QUALITY CONTROLLED BY NWS.

THE REMARK "TC" DENOTES TEMPERATURE READING IN DEGREES CELSIUS.

GAZ001>058-231700-
NORTH GEORGIA

CITY           SKY/WX    TMP DP  RH WIND       PRES   REMARKS
ATLANTA        MOSUNNY   59  42  53 SW7       30.13F
ATHENS         SUNNY     63  43  48 VRB5      30.11F
CHAMBLEE       SUNNY     59  41  51 W6        30.12F
PEACHTREE CITY SUNNY     60  43  53 CALM      30.14F
ROME           SUNNY     60  43  53 N12       30.15F
WEST ATLANTA   SUNNY     59  43  55 VRB3      30.13F
GAINESVILLE    SUNNY     61  39  44 NW6       30.12F
CARTERSVILLE   SUNNY     54  41  61 CALM      30.16F


CITY           SKY/WX    TMP DP  RH WIND       PRES   REMARKS
DALTON*        SUNNY     55  43  62 N8        30.16S
LAWRENCEVILLE* SUNNY     59  39  47 SW6       30.11F
MARIETTA       MOSUNNY   59  44  56 W8        30.13F
KENNESAW*      SUNNY     55  41  58 NW9G16    30.15F
$$

GAZ059>098-102>109-231700-
CENTRAL GEORGIA

CITY           SKY/WX    TMP DP  RH WIND       PRES   REMARKS
AUGUSTA-BUSH   SUNNY     63  38  39 N5        30.11F
AUGUSTA-DANIEL SUNNY     63  39  41 CALM      30.12F
COLUMBUS       SUNNY     61  44  53 CALM      30.14F
MACON          SUNNY     61  42  49 VRB3      30.13F
ROBINS AFB     SUNNY     62  46  54 VRB1      30.13F


CITY           SKY/WX    TMP DP  RH WIND       PRES   REMARKS
LAGRANGE*      SUNNY     63  48  58 CALM      30.14S
SYLVANIA*      SUNNY     68  48  49 CALM      30.12S
MILLEDGEVILLE* SUNNY     61  48  63 CALM      30.14S
$$

GAZ099>101-110>166-231700-
SOUTH GEORGIA

CITY           SKY/WX    TMP DP  RH WIND       PRES   REMARKS
SAVANNAH       SUNNY     65  43  44 NW3       30.10F
VALDOSTA       SUNNY     68  41  37 E6        30.11F
ALMA           SUNNY     65  45  48 CALM      30.11F
ST SIMONS      SUNNY     68  48  48 N6        30.09F
FT STEWART     SUNNY     65  45  49 CALM      30.09F
ALBANY         SUNNY     66  47  50 CALM      30.14F
HUNTER AFB     SUNNY     63  45  51 NW3       30.08F
MOODY AFB      SUNNY     67  43  41 VRB5      30.11F
BRUNSWICK      SUNNY     68  45  42 N3        30.11S


CITY           SKY/WX    TMP DP  RH WIND       PRES   REMARKS
BAINBRIDGE*    SUNNY     72  48  43 E6        30.11F
MOULTRIE*      SUNNY     64  46  52 CALM      30.13S
VIDALIA*       SUNNY     64  45  48 CALM      30.12F
WAYCROSS*      SUNNY     69  50  51 CALM      30.11F
DOUGLAS*       SUNNY     66  43  42 CALM      30.13S
$$



USA.gov is the U.S. government's official web portal to all federal, state and local government web resources and services.